SCOUT X-1 DEB, 4026

Orbit data source: Space-Track

SCOUT X-1 DEB, 4026 is space debris in LEO originally from a launch on Thu, 16 Feb 1961 UTC launched from the Wallops Island (WLPIS). Debris objects in space refer to the collection of defunct objects orbiting the Earth. Examples of debris include non-operational satellites, rocket bodies, and fragments generated from explosions, collisions, or faulty payload assembly.

Loading next visibility...
Identifier
4026, 1961-004G
Orbit
LEO
Last TLE update
12 hours ago
Origin
Manufacturer
Unknown
Mission
Spacecraft
Bus & Motor
Unknown
Mass
Unknown
Launch date (UTC)
1961-02-16 (64 years ago)
Launch vehicle
Unknown
Launch site
Wallops Island (WLPIS)
Object type
Payload
Rocket body
Debris
Shape & HBR
Unknown
Radar Cross Section
Small (<0.1 m²)

Expand to show TLE details & history

TLE from 12 hours ago
0 SCOUT X-1 DEB
1 04026U 61004G   25199.88228723  .00016927  00000-0  36751-2 0  9998
2 04026  38.8178  39.3251 0409767  86.8017 277.9515 14.16470296 86274
Epoch: 2025-07-18T21:10Z
TLE epoch observation values (Epoch: 2025-07-18T21:10:29.616Z)
Latitude
0.00002°
Longitude
144.77435°
Altitude
807.735 km
Speed
7.466 km/s
True Right ascension
02h 37m 18s
True Declination
0° 00' 00"
Sunlit
Object was in daylight at epoch
Visualization orbit readout
Latitude
28.80417°
Longitude
-174.95359°
Altitude
606.423 km
Speed
7.68 km/s
Apparent Right ascension
07h 22m 55s
Apparent Declination
-4° 36' 28"
Sunlit
Object is in daylight
Visualization observer readout
Local Sidereal Time
22:04:00
Azimuth
56.505° ENE
Elevation
-39.409°
Doppler factor
1
Orbital elements
Apogee altitude
1,135.601 km
Perigee altitude
544.064 km
Semi-major axis
7,217.969 km
Eccentricity
0.04098
Inclination
38.8178°
RAAN
39.3251°
Arg. of periapsis
86.8017°
True anomaly
273.27309°
Mean anomaly
277.9515°
Eccentric anomaly
275.61497°
Mean motion
3.53933 °/min
Orbital period
101.71 mins
BSTAR
0.0036751
Loading maneuver chart data...
Loading SW <> Apogee altitude chart data...
Loading historical data...
Loading historical data...
Loading historical data...
Loading historical data...
Loading historical data...
Loading historical data...
Loading historical data...
|